Time,TemperatureF,DewpointF,PressureIn,WindDirection,WindDirectionDegrees,WindSpeedMPH,WindSpeedGustMPH,Humidity,HourlyPrecipIn,Conditions,Clouds,dailyrainin,SoftwareType,DateUTC
2013-05-22 00:08:00,81.8,76.0,29.87,ENE,69,7.0,12.0,83,0.00,,,0.00,weatherlink.com 1.10,2013-05-22 04:08:00,
2013-05-22 00:23:00,81.8,76.0,29.87,SE,124,8.0,15.0,82,0.00,,,0.00,weatherlink.com 1.10,2013-05-22 04:23:00,
2013-05-22 00:38:00,81.9,76.0,29.86,East,86,3.0,15.0,82,0.00,,,0.00,weatherlink.com 1.10,2013-05-22 04:38:00,
2013-05-22 00:53:00,81.8,76.0,29.86,ENE,57,8.0,13.0,83,0.00,,,0.00,weatherlink.com 1.10,2013-05-22 04:53:00,
2013-05-22 01:08:00,81.7,76.0,29.85,East,96,5.0,12.0,83,0.00,,,0.00,weatherlink.com 1.10,2013-05-22 05:08:00,
2013-05-22 01:23:00,81.7,76.0,29.84,East,101,8.0,12.0,83,0.00,,,0.00,weatherlink.com 1.10,2013-05-22 05:23:00,
2013-05-22 01:38:00,81.6,76.0,29.84,East,93,6.0,14.0,84,0.00,,,0.00,weatherlink.com 1.10,2013-05-22 05:38:00,
2013-05-22 01:53:00,81.6,76.0,29.84,ENE,76,5.0,13.0,84,0.00,,,0.00,weatherlink.com 1.10,2013-05-22 05:53:00,
2013-05-22 02:08:00,81.5,76.0,29.84,East,92,10.0,16.0,84,0.00,,,0.00,weatherlink.com 1.10,2013-05-22 06:08:00,
2013-05-22 02:23:00,81.5,76.0,29.83,ESE,119,8.0,14.0,84,0.00,,,0.00,weatherlink.com 1.10,2013-05-22 06:23:00,
2013-05-22 02:38:00,81.5,76.0,29.83,East,96,5.0,13.0,84,0.00,,,0.00,weatherlink.com 1.10,2013-05-22 06:38:00,
2013-05-22 02:53:00,81.4,76.0,29.82,ESE,109,3.0,10.0,84,0.00,,,0.00,weatherlink.com 1.10,2013-05-22 06:53:00,
2013-05-22 03:08:00,81.3,76.0,29.82,ESE,111,8.0,15.0,83,0.00,,,0.00,weatherlink.com 1.10,2013-05-22 07:08:00,
2013-05-22 03:23:00,81.5,76.0,29.82,East,88,8.0,13.0,83,0.00,,,0.00,weatherlink.com 1.10,2013-05-22 07:23:00,
2013-05-22 03:38:00,81.4,76.0,29.82,ESE,121,7.0,14.0,83,0.00,,,0.00,weatherlink.com 1.10,2013-05-22 07:38:00,
2013-05-22 03:53:00,81.4,76.0,29.82,SE,138,5.0,12.0,84,0.00,,,0.00,weatherlink.com 1.10,2013-05-22 07:53:00,
2013-05-22 04:08:00,81.3,76.0,29.82,ENE,67,4.0,13.0,83,0.00,,,0.00,weatherlink.com 1.10,2013-05-22 08:08:00,
2013-05-22 04:23:00,81.4,75.0,29.83,SE,136,7.0,16.0,82,0.00,,,0.00,weatherlink.com 1.10,2013-05-22 08:23:00,
2013-05-22 04:38:00,81.3,75.0,29.83,ENE,67,11.0,13.0,82,0.00,,,0.00,weatherlink.com 1.10,2013-05-22 08:38:00,
2013-05-22 04:53:00,81.1,75.0,29.82,ESE,105,8.0,11.0,82,0.00,,,0.00,weatherlink.com 1.10,2013-05-22 08:53:00,
2013-05-22 05:08:00,81.0,75.0,29.82,East,98,3.0,12.0,83,0.00,,,0.00,weatherlink.com 1.10,2013-05-22 09:08:00,
2013-05-22 05:23:00,80.9,75.0,29.82,ESE,109,7.0,15.0,83,0.00,,,0.00,weatherlink.com 1.10,2013-05-22 09:23:00,
2013-05-22 05:38:00,80.9,75.0,29.82,ESE,104,7.0,15.0,82,0.00,,,0.00,weatherlink.com 1.10,2013-05-22 09:38:00,
2013-05-22 05:53:00,81.0,75.0,29.82,NE,42,5.0,14.0,82,0.00,,,0.00,weatherlink.com 1.10,2013-05-22 09:53:00,
2013-05-22 06:08:00,81.0,75.0,29.82,ENE,76,7.0,14.0,81,0.00,,,0.00,weatherlink.com 1.10,2013-05-22 10:08:00,
2013-05-22 06:23:00,81.0,75.0,29.84,East,98,9.0,14.0,82,0.00,,,0.00,weatherlink.com 1.10,2013-05-22 10:23:00,
2013-05-22 06:38:00,81.1,75.0,29.84,ESE,118,8.0,16.0,82,0.00,,,0.00,weatherlink.com 1.10,2013-05-22 10:38:00,
2013-05-22 06:53:00,81.2,75.0,29.84,East,81,6.0,18.0,81,0.00,,,0.00,weatherlink.com 1.10,2013-05-22 10:53:00,
2013-05-22 07:08:00,81.6,75.0,29.84,East,88,11.0,17.0,80,0.00,,,0.00,weatherlink.com 1.10,2013-05-22 11:08:00,
2013-05-22 07:23:00,82.0,75.0,29.85,East,84,6.0,15.0,80,0.00,,,0.00,weatherlink.com 1.10,2013-05-22 11:23:00,
2013-05-22 07:38:00,82.2,75.0,29.86,East,80,5.0,14.0,79,0.00,,,0.00,weatherlink.com 1.10,2013-05-22 11:38:00,
2013-05-22 07:53:00,82.8,75.0,29.86,NE,50,7.0,17.0,78,0.00,,,0.00,weatherlink.com 1.10,2013-05-22 11:53:00,
2013-05-22 08:08:00,83.5,76.0,29.86,ESE,111,16.0,18.0,77,0.00,,,0.00,weatherlink.com 1.10,2013-05-22 12:08:00,
2013-05-22 08:23:00,83.9,76.0,29.87,SE,130,6.0,16.0,76,0.00,,,0.00,weatherlink.com 1.10,2013-05-22 12:23:00,
2013-05-22 08:38:00,84.1,76.0,29.87,ENE,69,11.0,16.0,77,0.00,,,0.00,weatherlink.com 1.10,2013-05-22 12:38:00,
2013-05-22 08:53:00,83.5,76.0,29.88,ENE,69,9.0,18.0,78,0.00,,,0.00,weatherlink.com 1.10,2013-05-22 12:53:00,
2013-05-22 09:08:00,83.9,76.0,29.88,ESE,107,11.0,17.0,77,0.00,,,0.00,weatherlink.com 1.10,2013-05-22 13:08:00,
2013-05-22 09:23:00,84.5,76.0,29.88,East,96,16.0,18.0,76,0.00,,,0.00,weatherlink.com 1.10,2013-05-22 13:23:00,
2013-05-22 09:38:00,85.1,76.0,29.88,SE,142,7.0,22.0,75,0.00,,,0.00,weatherlink.com 1.10,2013-05-22 13:38:00,
2013-05-22 09:53:00,85.1,77.0,29.88,SSE,160,5.0,22.0,76,0.00,,,0.00,weatherlink.com 1.10,2013-05-22 13:53:00,
2013-05-22 10:08:00,84.9,77.0,29.89,ENE,58,12.0,21.0,76,0.00,,,0.00,weatherlink.com 1.10,2013-05-22 14:08:00,
2013-05-22 10:23:00,85.3,77.0,29.89,ENE,71,7.0,17.0,76,0.00,,,0.00,weatherlink.com 1.10,2013-05-22 14:23:00,
2013-05-22 10:39:00,85.0,76.0,29.88,ESE,123,8.0,22.0,75,0.00,,,0.00,weatherlink.com 1.10,2013-05-22 14:39:00,
2013-05-22 10:54:00,85.1,77.0,29.88,SE,136,10.0,17.0,76,0.00,,,0.00,weatherlink.com 1.10,2013-05-22 14:54:00,
2013-05-22 11:09:00,85.1,77.0,29.89,ENE,73,13.0,21.0,76,0.00,,,0.00,weatherlink.com 1.10,2013-05-22 15:09:00,
2013-05-22 11:24:00,85.2,77.0,29.88,ESE,102,18.0,18.0,75,0.00,,,0.00,weatherlink.com 1.10,2013-05-22 15:24:00,
2013-05-22 11:39:00,85.1,75.0,29.88,ENE,72,10.0,23.0,72,0.00,,,0.00,weatherlink.com 1.10,2013-05-22 15:39:00,
2013-05-22 11:54:00,85.9,76.0,29.88,East,97,15.0,20.0,71,0.00,,,0.00,weatherlink.com 1.10,2013-05-22 15:54:00,
2013-05-22 12:09:00,85.7,76.0,29.88,East,85,9.0,22.0,73,0.00,,,0.00,weatherlink.com 1.10,2013-05-22 16:09:00,
2013-05-22 12:24:00,85.7,75.0,29.88,East,96,9.0,18.0,71,0.00,,,0.00,weatherlink.com 1.10,2013-05-22 16:24:00,
2013-05-22 12:39:00,86.3,77.0,29.87,East,98,3.0,23.0,73,0.00,,,0.00,weatherlink.com 1.10,2013-05-22 16:39:00,
2013-05-22 12:54:00,86.6,76.0,29.87,SSE,153,4.0,22.0,71,0.00,,,0.00,weatherlink.com 1.10,2013-05-22 16:54:00,
2013-05-22 13:09:00,87.0,77.0,29.86,ENE,76,7.0,17.0,71,0.00,,,0.00,weatherlink.com 1.10,2013-05-22 17:09:00,
2013-05-22 13:24:00,86.3,76.0,29.86,ESE,120,8.0,20.0,71,0.00,,,0.00,weatherlink.com 1.10,2013-05-22 17:24:00,
2013-05-22 13:39:00,86.1,76.0,29.85,East,87,11.0,17.0,71,0.00,,,0.00,weatherlink.com 1.10,2013-05-22 17:39:00,
2013-05-22 13:54:00,86.0,75.0,29.84,ENE,73,15.0,22.0,70,0.00,,,0.00,weatherlink.com 1.10,2013-05-22 17:54:00,
2013-05-22 14:09:00,86.5,76.0,29.83,NNE,33,6.0,16.0,71,0.00,,,0.00,weatherlink.com 1.10,2013-05-22 18:09:00,
2013-05-22 14:24:00,86.1,76.0,29.83,East,95,17.0,19.0,71,0.00,,,0.00,weatherlink.com 1.10,2013-05-22 18:24:00,
2013-05-22 14:39:00,86.6,76.0,29.82,East,91,11.0,18.0,71,0.00,,,0.00,weatherlink.com 1.10,2013-05-22 18:39:00,
2013-05-22 14:54:00,86.1,76.0,29.82,East,94,7.0,17.0,71,0.00,,,0.00,weatherlink.com 1.10,2013-05-22 18:54:00,
2013-05-22 15:09:00,85.7,76.0,29.82,ENE,74,11.0,16.0,72,0.00,,,0.00,weatherlink.com 1.10,2013-05-22 19:09:00,
2013-05-22 15:24:00,85.2,75.0,29.81,ESE,119,10.0,19.0,71,0.00,,,0.00,weatherlink.com 1.10,2013-05-22 19:24:00,
2013-05-22 15:39:00,85.4,75.0,29.80,ESE,105,8.0,16.0,70,0.00,,,0.00,weatherlink.com 1.10,2013-05-22 19:39:00,
2013-05-22 15:54:00,85.6,74.0,29.80,ESE,105,8.0,17.0,69,0.00,,,0.00,weatherlink.com 1.10,2013-05-22 19:54:00,
2013-05-22 16:09:00,85.3,74.0,29.80,East,89,8.0,16.0,69,0.00,,,0.00,weatherlink.com 1.10,2013-05-22 20:09:00,
2013-05-22 16:24:00,84.9,74.0,29.80,ENE,57,8.0,18.0,70,0.00,,,0.00,weatherlink.com 1.10,2013-05-22 20:24:00,
2013-05-22 16:39:00,84.8,74.0,29.80,SE,134,5.0,19.0,71,0.00,,,0.00,weatherlink.com 1.10,2013-05-22 20:39:00,
2013-05-22 16:54:00,84.9,74.0,29.80,East,101,9.0,18.0,70,0.00,,,0.00,weatherlink.com 1.10,2013-05-22 20:54:00,
2013-05-22 17:09:00,84.3,74.0,29.80,ENE,65,4.0,16.0,71,0.00,,,0.00,weatherlink.com 1.10,2013-05-22 21:09:00,
2013-05-22 17:24:00,84.2,74.0,29.80,East,98,18.0,21.0,71,0.00,,,0.00,weatherlink.com 1.10,2013-05-22 21:24:00,
2013-05-22 17:39:00,84.0,73.0,29.80,ESE,106,7.0,16.0,70,0.00,,,0.00,weatherlink.com 1.10,2013-05-22 21:39:00,
2013-05-22 17:54:00,83.6,74.0,29.81,ENE,61,9.0,14.0,72,0.00,,,0.00,weatherlink.com 1.10,2013-05-22 21:54:00,
2013-05-22 18:09:00,83.3,74.0,29.81,ENE,67,7.0,14.0,73,0.00,,,0.00,weatherlink.com 1.10,2013-05-22 22:09:00,
2013-05-22 18:24:00,83.0,74.0,29.81,East,93,3.0,15.0,73,0.00,,,0.00,weatherlink.com 1.10,2013-05-22 22:24:00,
2013-05-22 18:39:00,82.8,74.0,29.82,East,92,3.0,13.0,75,0.00,,,0.00,weatherlink.com 1.10,2013-05-22 22:39:00,
2013-05-22 18:54:00,82.6,74.0,29.82,ENE,76,11.0,16.0,75,0.00,,,0.00,weatherlink.com 1.10,2013-05-22 22:54:00,
2013-05-22 19:09:00,82.4,74.0,29.83,ESE,111,7.0,13.0,76,0.00,,,0.00,weatherlink.com 1.10,2013-05-22 23:09:00,
2013-05-22 19:24:00,82.3,74.0,29.83,ESE,107,5.0,15.0,77,0.00,,,0.00,weatherlink.com 1.10,2013-05-22 23:24:00,
2013-05-22 19:39:00,82.3,75.0,29.84,NE,55,4.0,11.0,78,0.00,,,0.00,weatherlink.com 1.10,2013-05-22 23:39:00,
2013-05-22 19:54:00,82.1,75.0,29.85,ENE,69,4.0,14.0,78,0.00,,,0.00,weatherlink.com 1.10,2013-05-22 23:54:00,
2013-05-22 20:09:00,82.0,75.0,29.86,ESE,113,7.0,12.0,80,0.00,,,0.00,weatherlink.com 1.10,2013-05-23 00:09:00,
2013-05-22 20:24:00,81.9,75.0,29.86,SE,132,5.0,14.0,80,0.00,,,0.00,weatherlink.com 1.10,2013-05-23 00:24:00,
2013-05-22 20:39:00,81.9,75.0,29.86,ESE,104,10.0,15.0,80,0.00,,,0.00,weatherlink.com 1.10,2013-05-23 00:39:00,
2013-05-22 20:54:00,81.8,76.0,29.87,NE,36,3.0,13.0,81,0.00,,,0.00,weatherlink.com 1.10,2013-05-23 00:54:00,
2013-05-22 21:09:00,81.8,76.0,29.88,NE,41,5.0,12.0,81,0.00,,,0.00,weatherlink.com 1.10,2013-05-23 01:09:00,
2013-05-22 21:24:00,81.8,76.0,29.88,ENE,67,9.0,12.0,81,0.00,,,0.00,weatherlink.com 1.10,2013-05-23 01:24:00,
2013-05-22 21:39:00,81.9,76.0,29.89,East,90,5.0,15.0,81,0.00,,,0.00,weatherlink.com 1.10,2013-05-23 01:39:00,
2013-05-22 21:54:00,81.9,75.0,29.89,ENE,61,9.0,12.0,80,0.00,,,0.00,weatherlink.com 1.10,2013-05-23 01:54:00,
2013-05-22 22:09:00,81.8,76.0,29.89,ENE,59,8.0,15.0,81,0.00,,,0.00,weatherlink.com 1.10,2013-05-23 02:09:00,
2013-05-22 22:24:00,81.8,76.0,29.89,ENE,58,8.0,13.0,81,0.00,,,0.00,weatherlink.com 1.10,2013-05-23 02:24:00,
2013-05-22 22:39:00,81.8,76.0,29.89,ENE,65,7.0,12.0,81,0.00,,,0.00,weatherlink.com 1.10,2013-05-23 02:39:00,
2013-05-22 22:54:00,81.8,76.0,29.89,ENE,75,8.0,14.0,81,0.00,,,0.00,weatherlink.com 1.10,2013-05-23 02:54:00,
2013-05-22 23:09:00,81.7,75.0,29.90,ENE,67,3.0,15.0,81,0.00,,,0.00,weatherlink.com 1.10,2013-05-23 03:09:00,
2013-05-22 23:24:00,81.7,76.0,29.90,East,90,3.0,9.0,82,0.00,,,0.00,weatherlink.com 1.10,2013-05-23 03:24:00,
2013-05-22 23:39:00,81.7,76.0,29.90,ENE,72,3.0,13.0,82,0.00,,,0.00,weatherlink.com 1.10,2013-05-23 03:39:00,
2013-05-22 23:54:00,81.5,76.0,29.90,ENE,61,8.0,9.0,82,0.00,,,0.00,weatherlink.com 1.10,2013-05-23 03:54:00,